Location: Beetgumermolden
(53.2353°N, 5.7055°E)
Time: 23:16:59
(UTC+00:00)

Daily predictions for brighter satellites

Satellite Brightness Start Highest point End
(mag) Time Altitude Azimuth Time Altitude Azimuth Time Altitude Azimuth
BREEZE-M R/B 4.2 17:30:14 10° W 17:34:13 54° S 17:42:17 10° ESE
COSMOS 2455 3.1 17:31:21 10° NW 17:37:25 81° SW 17:43:26 10° SSE
Lacrosse 5 2.3 17:32:31 10° WNW 17:37:34 57° N 17:42:38 10° E
USA 81 4.2 17:35:37 10° SSE 17:40:44 55° E 17:45:54 10° NNE
CZ-4 R/B 2.5 17:39:21 10° ESE 17:42:23 23° ENE 17:45:26 10° N
Cosmos 2333 4.4 17:38:52 10° SW 17:44:30 80° NW 17:50:14 10° NNE
SL-8 Rocket 4.3 17:38:16 10° NNW 17:44:34 77° W 17:50:51 10° S
Cosmos 1805 3.2 17:41:05 10° S 17:44:46 56° E 17:48:29 10° NNE
CZ-4C R/B 3.6 17:39:49 10° WNW 17:45:00 34° N 17:51:21 10° ENE
Cosmos 1943 Rocket 2.6 17:41:43 10° NNW 17:47:11 45° NE 17:52:35 10° ESE
CENTAUR R/B 3.8 17:40:46 10° WNW 17:47:34 41° N 17:55:34 10° E
Meteor 2-10 4.2 17:42:01 10° S 17:47:43 81° E 17:53:19 10° NNE
COSMO-SKYMED 1 2.6 17:44:16 10° NNE 17:48:37 64° ESE 17:52:56 10° S
Cosmos 1818 4.4 17:43:38 10° NW 17:48:58 55° SW 17:54:17 10° SSE
Cosmos 2366 rocket 4.2 17:43:01 10° NNW 17:49:12 81° W 17:55:20 10° S
ATLAS 3B R/B 3.0 17:43:20 10° SSW 17:50:01 51° ESE 17:57:11 10° NE
Cosmos 2322 3.7 17:44:42 10° SSW 17:50:23 68° ESE 17:56:05 10° NE
Cosmos 1869 Rocket 4.2 17:47:32 10° SSE 17:51:26 33° E 17:55:19 10° NNE
Cosmos 2333 Rocket 2.7 17:48:27 10° SW 17:54:04 64° NW 17:59:46 10° NNE
Okean 3 4.3 17:51:10 10° NNW 17:55:14 56° W 17:59:17 10° S
Cosmos 1470 4.3 17:53:03 10° ESE 17:55:28 16° E 17:57:54 10° NE
Cosmos 1340 Rocket 3.8 17:52:30 10° NNW 17:56:27 51° W 18:00:21 10° S
COSMOS 2428 2.7 17:53:04 10° SSW 17:58:39 62° ESE 18:04:16 10° NE
Okean 1-7 3.6 17:55:00 10° NNW 17:59:18 64° W 18:03:36 10° S
ADEOS Rocket 4.3 17:53:16 10° ESE 17:59:31 30° NE 18:05:21 10° N
Landsat 7 4.3 17:55:59 10° SE 18:00:20 38° ENE 18:04:42 10° N
SJ-6B 3.8 17:57:01 10° SE 18:00:28 29° ENE 18:03:55 10° N
Nadezhda 3 Rocket 4.3 17:58:09 10° SSE 18:04:07 45° E 18:10:06 10° NNE
Helios 1A 4.4 18:02:05 10° N 18:05:58 42° WNW 18:09:49 10° SW
Okean O Rocket 2.5 18:02:49 10° ESE 18:06:39 29° ENE 18:10:30 10° N
Cosmos 2219 Rocket 2.5 18:03:00 10° SW 18:08:36 72° NW 18:14:15 10° NNE
Cosmos 1470 Rocket 4.2 18:05:15 10° SSW 18:09:35 60° WNW 18:14:00 10° N
Cosmos 405 3.4 18:11:09 10° NNE 18:13:19 23° ENE 18:14:18 19° ESE
NOSS 2-3 (C) 3.9 18:14:10 10° WSW 18:18:01 63° NW 18:22:41 10° NE
Meteor 1-24 Rocket 4.3 18:13:29 10° N 18:18:24 34° ENE 18:22:46 12° SE
SKYMED 3 4.5 18:15:10 10° NNE 18:19:19 60° ESE 18:23:28 10° S
CZ-4B R/B 3.3 18:16:00 10° S 18:19:26 56° WSW 18:22:57 10° NNW
NOSS 2-2 (E) 3.0 18:16:53 10° SW 18:20:04 74° NW 18:23:32 10° NE
Resurs 1-3 4.0 18:17:43 10° SE 18:21:48 41° ENE 18:25:55 10° N
Meteor 2-5 Rocket 4.2 18:17:30 10° N 18:22:50 39° ENE 18:27:52 11° SE
NOSS 2-3 (D) 3.9 18:19:30 10° WSW 18:23:19 62° NW 18:27:57 10° NE
GEOS 3 Rocket 3.7 18:18:26 10° NE 18:23:52 84° SE 18:29:12 10° SW
SL-16 R/B 4.3 18:21:27 10° W 18:26:04 25° NW 18:30:42 10° NNE
PSLV R/B 3.9 18:23:29 10° SSE 18:27:17 55° ENE 18:31:10 10° N
CSL-04 Rocket 4.1 18:24:15 12° SE 18:28:44 40° ENE 18:33:42 10° N
NOSS 3-1 (A) 3.5 18:24:21 10° SSW 18:29:12 43° ESE 18:34:56 10° NE
SME Rocket 3.7 18:23:51 10° SE 18:30:03 56° ENE 18:34:24 10° N
Cosmos 1733 Rocket 3.7 18:28:08 10° SSE 18:32:00 32° E 18:35:52 10° NNE
Cosmos 1975 4.5 18:29:06 10° SW 18:32:42 36° WNW 18:36:21 10° N
Resurs 01 Rocket 2.7 18:32:25 20° E 18:34:21 28° ENE 18:38:08 10° N
SPOT 1/Viking Rocket 4.0 18:30:18 14° SE 18:34:23 41° ENE 18:39:12 10° N
IGS 5A 3.8 18:30:26 10° S 18:34:30 67° WSW 18:38:37 10° NNW
USA 186 2.4 18:35:27 28° E 18:36:08 32° ENE 18:38:54 10° N
Landsat 4 3.5 18:33:28 10° SSE 18:37:04 70° ENE 18:40:42 10° N
Cosmos 1269 Rocket 3.9 18:35:35 10° SSW 18:40:52 76° ESE 18:46:12 10° NNE
NOSS 2-2 (D) 3.1 18:38:35 10° WSW 18:41:46 65° NW 18:44:55 12° NE
Cosmos 1980 3.7 18:37:06 10° SSW 18:42:38 59° ESE 18:48:12 10° NE
Cosmos 1763 Rocket 4.3 18:38:08 10° NNW 18:42:44 32° NE 18:44:57 23° E
Cosmos 2322 Rocket 4.3 18:40:04 10° W 18:44:40 25° NW 18:49:18 10° NNE
Cosmos 2242 Rocket 4.2 18:40:36 10° NNW 18:45:03 60° W 18:49:31 10° S
NOSS 2-2 (C) 3.3 18:42:57 10° WSW 18:46:07 61° NW 18:49:06 13° NE
Okean-O 3.4 18:46:44 26° E 18:48:11 32° ENE 18:52:08 10° N
Cosmos 1703 4.4 18:45:06 10° NNE 18:48:18 24° ENE 18:48:18 24° ENE
Cosmos 1766 3.3 18:44:51 10° SSW 18:48:38 75° WNW 18:52:24 10° N
CZ-4B R/B 3.1 18:43:34 10° SSE 18:48:52 90° ENE 18:54:16 10° NNW
SL-08 R/B 4.5 18:44:54 10° N 18:49:40 48° WNW 18:54:23 10° SW
Cosmos 1867 3.7 18:44:35 10° SSW 18:49:50 52° SE 18:55:08 10° NE
Cosmos 1378 Rocket 3.7 18:45:43 10° N 18:49:56 49° ENE 18:52:13 24° SE
Cosmos 614 Rocket 4.0 18:44:54 10° SSW 18:49:57 81° WNW 18:55:05 10° NNE
Cosmos 2278 Rocket 3.3 18:45:17 10° NW 18:50:38 44° WSW 18:55:57 10° S
Cosmos 972 Rocket 4.4 18:46:21 10° NNW 18:51:36 44° ENE 18:53:56 27° ESE
Cosmos 1140 Rocket 4.0 18:47:41 10° SSE 18:52:18 34° ESE 18:56:58 10° NE
MOS 1-B 4.4 18:50:14 10° SSE 18:56:01 86° WSW 19:01:52 10° NNW
CZ-4C R/B 3.1 18:53:13 10° NNE 18:56:33 47° E 18:59:36 12° S
Cosmos 1605 Rocket 4.0 18:51:45 10° N 18:57:47 58° ENE 19:02:32 17° SSE
Feng Yun 1-1 Rocket 4.2 18:52:40 10° SSE 18:58:27 85° ENE 19:04:07 10° NNW
Cosmos 1934 Rocket 4.0 18:52:52 10° N 18:59:15 88° E 19:05:29 10° S
Cosmos 389 Rocket 2.0 18:57:47 10° N 19:00:49 63° ENE 19:01:01 61° E
USA 267 3.4 18:58:14 23° E 19:02:34 69° N 19:09:04 10° WNW
Cosmos 1339 Rocket 4.5 18:57:10 10° S 19:03:24 68° E 19:09:45 10° NNE
Cosmos 1535 Rocket 4.4 18:57:30 10° N 19:03:39 75° ENE 19:09:46 10° SSE
NOSS 3-1 (C) 3.4 19:00:31 10° SW 19:05:46 75° NW 19:12:15 10° NE
Cosmos 2360 Rocket 4.4 19:03:57 10° W 19:08:29 24° NNW 19:13:04 10° NNE
Gbstr 26 Del rocket 4.5 19:02:20 10° WSW 19:10:15 73° SSE 19:15:08 26° E
Cosmos 1674 Rocket 3.5 19:06:29 10° N 19:10:57 71° ENE 19:12:54 32° SSE
Cosmos 2251 Rocket 3.8 19:07:30 10° S 19:12:27 42° ESE 19:17:25 10° NE
Ariane Rocket 4.3 19:12:30 23° ENE 19:12:50 23° NE 19:16:46 10° N
SPOT 5 4.1 19:13:30 22° NE 19:13:30 22° NE 19:16:29 10° N
Cosmos 1656 Rocket 3.7 19:11:32 10° NNW 19:16:55 57° NE 19:18:43 39° ESE
CZ-4 R/B 2.5 19:13:21 10° S 19:16:59 41° W 19:20:37 10° NNW
Terra 3.5 19:19:07 18° NE 19:19:07 18° NE 19:21:51 10° NNE
Cosmos 2369 Rocket 2.3 19:13:53 10° NNW 19:19:25 55° NE 19:21:10 39° ESE
Cosmos 1408 4.4 19:17:34 10° N 19:18:46 18° NNE 19:18:46 18° NNE
Cosmos 2237 Rocket 2.2 19:15:01 10° SSW 19:20:43 85° WNW 19:26:29 10° NNE
Lacrosse 5 1.8 19:15:43 10° WNW 19:20:51 85° SSW 19:22:30 44° ESE
SL-4 R/B 4.0 19:17:40 10° SSW 19:19:00 16° S 19:19:00 16° S
IRIDIUM 114 4.4 19:16:18 10° N 19:21:25 52° E 19:22:43 42° SE
Cosmos 967 Rocket 4.5 19:17:30 10° NW 19:23:58 73° NE 19:26:37 38° ESE
Cosmos 1400 Rocket 3.6 19:21:50 10° N 19:25:02 37° NE 19:25:02 37° NE
SL-16 R/B 2.4 19:24:57 10° S 19:30:18 45° ESE 19:35:42 10° NE
IRIDIUM 103 4.3 19:25:27 10° N 19:30:39 61° E 19:31:53 47° SE
Cosmos 841 Rocket 4.4 19:26:08 10° NNW 19:30:41 30° NE 19:31:02 30° ENE
Cosmos 1470 3.3 19:26:54 10° SSW 19:30:42 57° WNW 19:34:32 10° N
Cosmos 1943 Rocket 3.2 19:25:37 10° NW 19:30:59 44° WSW 19:35:34 14° S
NOSS 0 Rocket 4.4 19:26:57 10° SW 19:33:06 62° NW 19:39:19 10° NNE
Cosmos 1727 Rocket 4.2 19:33:39 42° ESE 19:34:26 44° E 19:40:20 10° NNE
Meteor 1-22 Rocket 3.9 19:29:24 10° S 19:34:42 84° E 19:40:06 10° NNE
SJ-6B 4.3 19:31:03 10° SSW 19:34:45 35° W 19:38:26 10° NNW
CZ-4C R/B 3.4 19:28:54 10° NW 19:34:57 44° NNE 19:38:12 29° ENE
ERS-1 Rocket 4.1 19:36:23 28° NE 19:36:23 28° NE 19:40:18 10° N
Cosmos 2221 Rocket 3.9 19:32:14 10° NNW 19:36:45 65° W 19:38:56 29° S
Cosmos 2333 Rocket 4.5 19:35:11 10° W 19:39:29 22° NNW 19:43:49 10° NNE
CENTAUR R/B 3.2 19:31:50 10° NW 19:39:35 68° NE 19:43:21 38° ESE
ATLAS 3B R/B 3.3 19:33:42 10° WSW 19:40:45 61° NNW 19:48:19 10° NE
Okean O Rocket 2.7 19:39:33 16° SSW 19:42:50 43° W 19:47:05 10° NNW
COSMOS 2428 4.3 19:38:07 10° WSW 19:43:17 35° NW 19:48:28 10° NNE
Cosmos 2297 3.7 19:37:45 10° NNW 19:43:32 80° WSW 19:45:25 44° SSE
ADEOS Rocket 3.5 19:38:43 20° SSE 19:44:24 85° WSW 19:51:31 10° NNW
Cosmos 1153 Rocket 4.4 19:41:52 10° N 19:48:06 80° ENE 19:50:18 43° SSE
IRIDIUM 106 4.2 19:43:44 10° N 19:49:00 84° E 19:50:08 56° SSE
Cosmos 1356 Rocket 3.9 19:45:15 10° N 19:48:35 51° NNE 19:48:35 51° NNE
Meteor 1-12 Rocket 4.5 19:44:42 10° SSW 19:50:34 75° WNW 19:56:35 10° NNE
Cosmos 2173 Rocket 4.0 19:46:56 10° N 19:52:57 56° ENE 19:53:29 54° E
Cosmos 2219 Rocket 4.4 19:49:11 10° W 19:53:33 23° NNW 19:57:57 10° NNE
MOS 1 4.1 19:53:44 58° SSE 19:54:55 81° ENE 20:00:36 10° NNW
Cosmos 407 Rocket 3.4 19:55:40 10° SSW 20:00:55 86° ESE 20:06:17 10° NNE
USA 229 DEB 3.4 19:57:02 10° SW 20:03:18 80° SE 20:10:16 10° NE
USA 229 3.4 19:57:07 10° SW 20:03:24 79° SE 20:10:21 10° NE
NOSS 3-2 (A) 3.9 19:58:45 10° NW 20:05:47 72° NE 20:07:54 51° ESE
USA 186 4.3 20:08:04 18° W 20:08:04 18° W 20:10:12 10° NW
Resurs 01 Rocket 2.5 20:09:57 42° SW 20:10:38 46° W 20:14:57 10° NNW
Cosmos 2100 Rocket 3.8 20:07:38 10° N 20:13:50 79° ENE 20:14:22 73° SE
Cosmos 1459 Rocket 3.9 20:09:10 10° N 20:15:35 76° ENE 20:16:04 72° ESE
MetOp-B 4.0 20:16:32 86° NNE 20:16:32 86° NNE 20:21:52 10° NNW
IRS-1C Rocket 4.3 20:16:30 60° SW 20:17:08 66° WSW 20:22:24 10° NNW
Cosmos 468 Rocket 4.0 20:12:48 10° NNW 20:17:55 77° W 20:17:55 77° W
NOSS 3-1 (A) 3.9 20:14:34 10° WSW 20:19:53 56° NNW 20:26:26 10° NE
Meteor 2-10 Rocket 3.7 20:20:30 80° NE 20:20:30 80° NE 20:26:06 10° NNE
Okean-O 3.8 20:24:15 37° WSW 20:24:34 38° W 20:28:43 10° NNW
Cosmos 1763 Rocket 3.9 20:19:48 10° NNW 20:24:47 53° WSW 20:24:57 53° WSW
Exosat Rocket 4.2 20:21:04 10° NNW 20:25:50 47° NNE 20:25:50 47° NNE
Cosmos 1025 Rocket 4.0 20:24:03 10° NNW 20:27:19 45° NW 20:27:19 45° NW
Cosmos 540 Rocket 3.7 20:23:27 10° NNW 20:28:04 64° WNW 20:28:04 64° WNW
Cosmos 1867 4.5 20:28:18 10° WSW 20:33:34 47° NW 20:36:47 22° NNE
Cosmos 1140 Rocket 4.4 20:28:59 10° SW 20:33:57 46° NW 20:38:59 10° NNE
Cosmos 1802 Rocket 3.9 20:35:08 10° N 20:41:15 83° N 20:41:15 83° N
USA 267 3.1 20:45:35 77° SSW 20:45:36 77° SSW 20:52:11 10° WNW
NOSS 3-2 (C) 3.9 20:39:07 10° NW 20:46:09 70° NE 20:46:51 67° ENE
Spot 2 Rocket 4.4 20:48:54 44° N 20:48:54 44° N 20:52:22 10° NNW
SPOT 5 4.2 20:52:41 33° NW 20:52:41 33° NW 20:55:14 10° NNW
Ariane Rocket 3.8 20:52:40 49° NNW 20:52:40 49° NNW 20:56:26 10° NNW
Cosmos 2061 Rocket 4.3 20:46:54 10° N 20:52:00 60° NNE 20:52:00 60° NNE
Terra 3.3 20:57:52 34° NNW 20:57:52 34° NNW 21:00:30 10° NNW
Cosmos 2016 Rocket 4.1 20:50:18 10° NNW 20:56:04 74° NNW 20:56:04 74° NNW
Gbstr 26 Del rocket 4.3 20:49:30 10° W 20:57:28 80° SSW 20:57:28 80° SSW
Cosmos 2369 Rocket 3.4 20:58:15 10° NW 21:02:57 33° WSW 21:02:57 33° WSW
Lacrosse 5 3.8 20:59:04 10° WNW 21:01:41 23° W 21:01:41 23° W
Cosmos 1725 Rocket 4.2 20:59:09 10° NNW 21:04:42 68° NW 21:04:42 68° NW
Cosmos 2237 Rocket 4.2 21:00:55 10° W 21:05:37 26° NW 21:10:21 10° NNE
SL-16 R/B 3.2 21:09:03 10° WSW 21:14:29 44° NW 21:19:57 10° NNE
ERS-1 Rocket 4.3 21:16:20 36° NW 21:16:20 36° NW 21:19:31 10° NNW
CZ-4C R/B 2.9 21:17:18 10° NW 21:23:20 73° NW 21:23:20 73° NW
USA 238 DEB 4.0 21:19:06 10° NW 21:25:31 71° NNW 21:25:31 71° NNW
USA 238 4.0 21:19:11 10° NW 21:25:37 70° NNW 21:25:37 70° NNW
CENTAUR R/B 3.6 21:22:37 10° NW 21:30:27 53° WSW 21:30:30 53° SW
ATLAS 3B R/B 4.1 21:26:05 10° WNW 21:32:54 38° N 21:38:16 17° NE
Cosmos 1697 Rocket 4.3 21:35:24 10° NNW 21:38:42 28° N 21:38:42 28° N
Cosmos 1980 Rocket 4.0 21:38:28 10° NNW 21:42:03 24° NNE 21:42:03 24° NNE
SL-16 R/B 4.5 21:55:27 10° NNW 21:58:58 16° NNE 21:59:36 16° NNE
Cosmos 2333 Rocket 4.5 23:08:47 10° NNW 23:12:47 19° NNE 23:12:52 19° NNE
ATLAS 3B R/B 3.8 23:18:10 10° NW 23:25:22 45° NNE 23:25:25 45° NNE
Cosmos 1980 Rocket 4.5 23:22:16 10° NNW 23:23:47 19° NNW 23:23:47 19° NNW
SL-16 R/B 4.4 23:39:22 10° NNW 23:41:25 21° NNW 23:41:25 21° NNW
